Terminal Aerodrome Forecast
Issued by NWS Lake Charles, LA

Home | Current Version | Previous Version | Text Only | Print | Product List | Glossary On
Versions: 1 2 3 4 5 6 7 8 9 10 11 12
538
FTUS44 KLCH 232320
TAFARA
TAF
KARA 232320Z 2400/2424 11005KT P6SM VCTS FEW025CB SCT040 BKN100
     FM240200 VRB03KT P6SM FEW100 OVC250
     FM241600 05007KT P6SM VCSH SCT025 BKN040=

USA.gov is the U.S. government's official web portal to all federal, state and local government web resources and services.